EW7755 Weather Reports


time (UTC)temp
F
wind
direction
speed
knots
gust
knots
rain 1hr
in
rain 24hr
in
rain mn
in
humidity
%
barometer
mb
20260505011746 61 51 8.7 14.8 0.00 0.00 0.00 37 1007.6
20260505011248 61 42 9.6 16.5 0.00 0.00 0.00 36 1007.6
20260505010745 61 49 10.4 16.5 0.00 0.00 0.00 36 1007.6
20260505010245 61 55 8.7 18.2 0.00 0.00 0.00 36 1007.6
20260505005746 62 51 11.3 18.2 0.00 0.00 0.00 35 1007.6
20260505005245 62 35 12.2 20.9 0.00 0.00 0.00 35 1007.5
20260505004745 62 35 9.6 20.9 0.00 0.00 0.00 35 1007.3
20260505004504 62 31 12.2 20.9 0.00 0.00 0.00 35 1007.2
20260505003742 62 35 13.0 19.1 0.00 0.00 0.00 35 1007.2
20260505003242 62 20 11.3 20.0 0.00 0.00 0.00 35 1007.5
20260505002738 62 17 14.8 20.0 0.00 0.00 0.00 35 1007.2
20260505002238 62 34 8.7 20.9 0.00 0.00 0.00 35 1007.2
20260505001734 63 44 12.2 20.9 0.00 0.00 0.00 35 1007.1
20260505001235 63 25 10.4 20.9 0.00 0.00 0.00 34 1006.9
20260505000732 63 44 14.8 20.9 0.00 0.00 0.00 34 1006.8
20260505000233 64 59 13.0 25.2 0.00 0.00 0.00 34 1006.8
20260504235954 64 41 17.4 25.2 0.00 0.00 0.00 33 1006.8
20260504235232 65 56 15.6 25.2 0.00 0.00 0.00 33 1006.7
20260504234732 65 28 14.8 25.2 0.00 0.00 0.00 32 1006.5
20260504234453 66 4 14.8 24.3 0.00 0.00 0.00 32 1006.5
20260504233733 66 52 15.6 24.3 0.00 0.00 0.00 32 1006.5
20260504233454 67 45 15.6 24.3 0.00 0.00 0.00 32 1006.4
20260504232956 67 52 19.1 26.9 0.00 0.00 0.00 32 1006.2
20260504232232 67 45 13.9 26.9 0.00 0.00 0.00 32 1006.2
20260504231732 67 39 13.0 25.2 0.00 0.00 0.00 31 1006.2
20260504231230 68 44 15.6 25.2 0.00 0.00 0.00 30 1006.2
20260504230730 69 51 13.0 23.5 0.00 0.00 0.00 30 1006.1
20260504230230 69 49 12.2 19.1 0.00 0.00 0.00 29 1006.0
20260504225727 69 52 9.6 19.1 0.00 0.00 0.00 28 1006.0
20260504225223 69 49 13.9 19.1 0.00 0.00 0.00 28 1006.0
20260504224943 69 55 12.2 19.1 0.00 0.00 0.00 28 1006.0
20260504224219 69 65 10.4 19.1 0.00 0.00 0.00 28 1006.0
20260504223715 69 30 8.7 16.5 0.00 0.00 0.00 27 1005.9
20260504223215 69 16 9.6 16.5 0.00 0.00 0.00 27 1005.7
20260504222714 69 61 11.3 18.2 0.00 0.00 0.00 27 1005.6
20260504222210 69 59 9.6 22.6 0.00 0.00 0.00 27 1005.6
20260504221930 70 62 11.3 23.5 0.00 0.00 0.00 27 1005.4
20260504221208 70 49 13.9 23.5 0.00 0.00 0.00 28 1005.2
20260504220707 70 54 13.0 25.2 0.00 0.00 0.00 28 1005.3
20260504220206 70 34 15.6 26.9 0.00 0.00 0.00 28 1005.1
20260504215704 70 10 15.6 27.8 0.00 0.00 0.00 29 1005.1
20260504215204 70 28 16.5 30.4 0.00 0.00 0.00 29 1005.1
20260504214703 70 11 19.1 30.4 0.00 0.00 0.00 29 1005.1
20260504214203 71 34 19.1 33.9 0.00 0.00 0.00 27 1004.7
20260504213702 73 14 23.5 33.9 0.00 0.00 0.00 26 1004.4
20260504213203 74 17 14.8 22.6 0.00 0.00 0.00 22 1004.5
20260504212703 75 38 7.0 18.2 0.00 0.00 0.00 19 1004.5
20260504212203 76 0 10.4 16.5 0.00 0.00 0.00 19 1004.5
20260504211924 77 344 8.7 15.6 0.00 0.00 0.00 20 1004.4
20260504211204 78 24 10.4 15.6 0.00 0.00 0.00 19 1004.4
20260504210703 77 24 12.2 15.6 0.00 0.00 0.00 19 1004.4
20260504210429 76 35 2.6 12.2 0.00 0.00 0.00 18 1004.5
20260504205702 78 71 2.6 10.4 0.00 0.00 0.00 17 1004.5
20260504205202 79 0 7.0 9.6 0.00 0.00 0.00 17 1004.5
20260504204702 79 30 4.3 11.3 0.00 0.00 0.00 17 1004.5
20260504204203 79 6 7.8 11.3 0.00 0.00 0.00 18 1004.6
20260504203703 79 28 4.3 11.3 0.00 0.00 0.00 17 1004.7
20260504203202 79 344 5.2 11.3 0.00 0.00 0.00 17 1004.8
20260504202703 79 343 3.5 10.4 0.00 0.00 0.00 18 1004.8
20260504202202 79 334 3.5 10.4 0.00 0.00 0.00 17 1004.8
20260504201703 80 24 4.3 7.8 0.00 0.00 0.00 16 1004.8
20260504201202 80 158 0.9 10.4 0.00 0.00 0.00 17 1005.1
20260504200703 80 230 6.1 10.4 0.00 0.00 0.00 18 1005.2
20260504200203 80 188 5.2 8.7 0.00 0.00 0.00 18 1005.1
20260504195703 79 217 6.1 8.7 0.00 0.00 0.00 18 1005.2
20260504195203 80 290 3.5 5.2 0.00 0.00 0.00 18 1005.3
20260504194202 78 189 1.7 3.5 0.00 0.00 0.00 19 1005.4
20260504193704 77 0 0.9 7.8 0.00 0.00 0.00 19 1005.5
20260504193202 77 0 2.6 9.6 0.00 0.00 0.00 19 1005.6
20260504192703 78 266 5.2 9.6 0.00 0.00 0.00 19 1005.7
20260504192203 77 238 3.5 7.8 0.00 0.00 0.00 20 1005.6
20260504191920 76 251 1.7 7.8 0.00 0.00 0.00 20 1005.7
20260504191433 76 0 5.2 8.7 0.00 0.00 0.00 19 1005.7
20260504190703 77 300 2.6 8.7 0.00 0.00 0.00 19 1006.0
20260504190204 78 319 4.3 9.6 0.00 0.00 0.00 19 1006.0
20260504185703 77 341 7.0 9.6 0.00 0.00 0.00 21 1006.0
20260504185203 78 299 2.6 8.7 0.00 0.00 0.00 18 1006.0
20260504184703 77 281 4.3 9.6 0.00 0.00 0.00 19 1006.1
20260504184202 77 317 5.2 9.6 0.00 0.00 0.00 18 1006.2
20260504183702 76 247 4.3 8.7 0.00 0.00 0.00 20 1006.3
20260504182702 75 345 6.1 9.6 0.00 0.00 0.00 21 1006.4
20260504182202 75 0 4.3 7.8 0.00 0.00 0.00 23 1006.4
20260504181702 76 0 2.6 8.7 0.00 0.00 0.00 20 1006.4
20260504181202 76 237 4.3 8.7 0.00 0.00 0.00 21 1006.5
20260504180702 76 235 5.2 7.8 0.00 0.00 0.00 20 1006.5
20260504180202 74 86 0.9 3.5 0.00 0.00 0.00 21 1006.7
20260504175702 73 16 1.7 3.5 0.00 0.00 0.00 21 1006.8
20260504175202 72 157 1.7 5.2 0.00 0.00 0.00 22 1006.8
20260504174703 73 62 2.6 7.8 0.00 0.00 0.00 22 1006.9
20260504174422 72 16 5.2 7.8 0.00 0.00 0.00 23 1006.9
20260504173704 73 354 5.2 6.1 0.00 0.00 0.00 23 1006.9
20260504173201 74 62 1.7 2.6 0.00 0.00 0.00 23 1007.0
20260504172702 75 155 0.9 4.3 0.00 0.00 0.00 23 1007.0
20260504172201 75 220 3.5 4.3 0.00 0.00 0.00 24 1007.0
20260504171704 72 200 2.6 3.5 0.00 0.00 0.00 23 1007.1
20260504171202 71 162 1.7 3.5 0.00 0.00 0.00 26 1007.1
20260504170702 71 120 1.7 3.5 0.00 0.00 0.00 26 1007.3
20260504170202 70 147 0.9 3.5 0.00 0.00 0.00 27 1007.3
20260504160409 65 266 7.8 13.0 0.00 0.00 0.00 37 1007.5
20260504151147 58 285 7.8 13.9 0.00 0.00 0.00 43 1007.6
20260504150646 58 243 8.7 13.0 0.00 0.00 0.00 45 1007.6
20260504150147 57 245 7.8 11.3 0.00 0.00 0.00 46 1007.6
20260504141134 53 261 7.0 14.8 0.00 0.00 0.00 50 1007.6
20260504140635 53 275 7.8 13.9 0.00 0.00 0.00 51 1007.7
20260504140132 52 314 5.2 15.6 0.00 0.00 0.00 52 1007.6
20260504130631 46 244 9.6 15.6 0.00 0.00 0.00 63 1007.2
20260504130131 45 247 8.7 15.6 0.00 0.00 0.00 64 1007.2
20260504120128 45 255 10.4 17.4 0.00 0.00 0.00 59 1007.0
20260504110628 45 237 10.4 13.0 0.00 0.00 0.00 61 1006.7
20260504110349 45 235 11.3 13.0 0.00 0.00 0.00 61 1006.7
20260504100125 46 254 8.7 13.0 0.00 0.00 0.00 59 1007.0
20260504090125 48 258 6.1 9.6 0.00 0.00 0.00 53 1007.5
20260504081622 49 182 6.1 8.7 0.00 0.00 0.00 51 1007.6
20260504081116 49 195 5.2 8.7 0.00 0.00 0.00 50 1007.6
20260504080617 49 188 5.2 7.8 0.00 0.00 0.00 51 1007.6
20260504080113 49 185 5.2 9.6 0.00 0.00 0.00 51 1007.6
20260504070104 51 106 3.5 4.3 0.00 0.00 0.00 45 1008.5
20260504060104 54 94 4.3 8.7 0.00 0.00 0.00 41 1008.8
20260504050552 56 157 3.5 11.3 0.00 0.00 0.00 40 1009.1
20260504045552 56 182 5.2 13.0 0.00 0.00 0.00 40 1009.1
20260504045052 56 168 7.8 12.2 0.00 0.00 0.00 40 1009.1
20260504044551 56 192 6.1 12.2 0.00 0.00 0.00 40 1009.1
20260504044051 56 189 6.1 12.2 0.00 0.00 0.00 40 1009.1
20260504043821 56 175 7.8 11.3 0.00 0.00 0.00 39 1009.3
20260504042546 57 169 6.1 9.6 0.00 0.00 0.00 39 1009.2
20260504042314 57 159 5.2 11.3 0.00 0.00 0.00 39 1009.3
20260504041546 57 182 6.1 11.3 0.00 0.00 0.00 39 1009.4
20260504041043 57 158 6.1 10.4 0.00 0.00 0.00 38 1009.4
20260504040539 58 192 6.1 10.4 0.00 0.00 0.00 39 1009.5
20260504040041 58 179 5.2 8.7 0.00 0.00 0.00 38 1009.5
20260504035540 58 168 4.3 8.7 0.00 0.00 0.00 38 1009.6
20260504035037 58 138 3.5 8.7 0.00 0.00 0.00 38 1009.5
20260504034533 59 133 4.3 8.7 0.00 0.00 0.00 37 1009.5
20260504034031 59 172 3.5 8.7 0.00 0.00 0.00 37 1009.6
20260504033531 59 169 2.6 5.2 0.00 0.00 0.00 36 1009.5
20260504033031 60 157 2.6 5.2 0.00 0.00 0.00 36 1009.4
20260504032530 60 149 2.6 8.7 0.00 0.00 0.00 36 1009.4
20260504032031 60 138 5.2 8.7 0.00 0.00 0.00 36 1009.5
20260504031528 60 137 5.2 6.1 0.00 0.00 0.00 35 1009.4
20260504031250 60 120 4.3 6.1 0.00 0.00 0.00 35 1009.5
20260504030524 61 123 5.2 10.4 0.00 0.00 0.00 35 1009.5
20260504030022 61 113 7.8 11.3 0.00 0.00 0.00 34 1009.4
20260504025518 61 103 8.7 11.3 0.00 0.00 0.00 34 1009.5
20260504025019 61 113 9.6 11.3 0.00 0.00 0.00 34 1009.4
20260504024519 62 104 7.8 8.7 0.00 0.00 0.00 34 1009.3
20260504024016 62 120 5.2 7.8 0.00 0.00 0.00 34 1009.3
20260504023517 62 113 6.1 8.7 0.00 0.00 0.00 34 1009.3
20260504023015 63 131 5.2 8.7 0.00 0.00 0.00 33 1009.4
20260504022515 63 121 5.2 7.8 0.00 0.00 0.00 33 1009.5
20260504022017 63 116 5.2 7.8 0.00 0.00 0.00 32 1009.5
20260504021747 63 100 5.2 8.7 0.00 0.00 0.00 31 1009.4
20260504021017 64 102 5.2 8.7 0.00 0.00 0.00 31 1009.3
20260504020516 64 103 5.2 7.8 0.00 0.00 0.00 31 1009.3
20260504020243 64 103 5.2 7.8 0.00 0.00 0.00 31 1009.4
20260504015514 65 110 6.1 7.8 0.00 0.00 0.00 31 1009.2
20260504015016 65 111 5.2 6.1 0.00 0.00 0.00 31 1009.2
20260504014516 65 111 6.1 7.8 0.00 0.00 0.00 30 1009.3
20260504014014 65 107 5.2 7.8 0.00 0.00 0.00 29 1009.2
20260504013515 65 103 5.2 6.1 0.00 0.00 0.00 29 1009.2
20260504013014 65 94 5.2 7.8 0.00 0.00 0.00 29 1009.2
20260504012514 65 85 5.2 8.7 0.00 0.00 0.00 28 1009.2